GFSWCAN_prec_kuchsnow_270.txt.gz
Snowfall_Accumulation
0.0 0.0 0.0 0.0 0.0 0.0 0.0 0.0 0.0 0.0 0.0 0.0 0.0 0.0 0.0 0.0 0.0 0.0 0.0 0.0 0.0 17.7 3.5 0.0 0.0 0.4 0.5 0.2 3.2 3.3 3.5 5.7 5.2 11.0 15.3 15.9 11.8 2.4 1.5 0.9 3.7 2.3 7.6 11.1 8.9 19.2 16.9 0.0 0.0 1.5 2.3 0.4 0.2 0.2
0.0 0.0 0.0 0.0 0.0 0.0 0.0 0.0 0.0 0.0 0.0 0.0 0.0 0.0 0.0 0.0 0.0 0.0 0.0 0.0 0.0 2.1 5.7 0.0 0.0 0.0 0.0 0.0 0.0 0.0 0.6 0.4 1.0 7.7 5.7 6.3 15.9 7.6 4.1 7.7 0.0 9.5 2.1 5.9 6.7 5.7 1.0 0.1 0.8 0.5 0.3 0.2 0.2 0.0
0.0 0.0 0.0 0.0 0.0 0.0 0.0 0.0 0.0 0.0 0.0 0.0 0.0 0.0 0.0 0.0 0.0 0.0 0.0 0.0 0.0 8.8 9.5 0.0 1.9 0.0 0.0 0.0 0.0 2.2 0.1 0.0 0.0 0.0 6.9 8.7 22.0 3.7 10.5 3.4 2.5 2.2 0.9 5.3 2.6 1.9 0.4 0.1 0.1 0.1 0.1 0.1 0.0 0.1
0.0 0.0 0.0 0.0 0.0 0.0 0.0 0.0 0.0 0.0 0.0 0.0 0.0 0.0 0.0 0.0 0.0 0.0 0.0 0.0 0.0 1.1 33.3 15.3 0.0 0.0 0.0 0.0 0.0 0.0 0.0 0.0 0.0 0.0 23.4 26.5 21.6 4.4 9.6 2.6 2.2 0.7 2.0 6.7 5.8 2.5 1.3 0.6 0.6 0.8 0.2 0.0 0.0 0.0
0.0 0.0 0.0 0.0 0.0 0.0 0.0 0.0 0.0 0.0 0.0 0.0 0.0 0.0 0.0 0.0 0.0 0.0 0.0 0.0 0.0 0.0 26.0 9.4 0.3 0.0 0.0 0.0 0.0 0.0 0.0 0.0 2.8 20.7 30.3 21.8 6.2 6.3 5.9 5.0 6.4 1.1 5.7 5.3 15.6 6.7 3.6 3.3 2.2 1.4 1.1 0.1 0.1 0.0
0.0 0.0 0.0 0.0 0.0 0.0 0.0 0.0 0.0 0.0 0.0 0.0 0.0 0.0 0.0 0.0 0.0 0.0 22.5 0.0 0.0 0.0 10.7 20.9 1.3 1.2 0.0 0.0 0.0 0.0 0.0 0.0 2.3 13.5 18.5 8.8 0.0 1.1 19.3 9.2 1.0 1.1 1.5 2.2 5.6 5.4 3.9 3.8 2.7 1.9 1.8 1.3 0.1 0.0
0.0 0.0 0.0 0.0 0.0 0.0 0.0 0.0 0.0 0.0 0.0 0.0 0.0 0.0 0.0 0.0 0.0 3.3 7.5 0.0 0.0 0.0 18.7 27.8 9.9 1.4 0.0 0.0 0.0 0.0 0.0 0.4 1.5 8.5 14.8 5.8 1.0 1.0 16.8 12.8 1.2 1.4 1.6 2.0 1.9 2.4 5.5 3.9 4.1 1.7 0.9 0.9 0.5 0.4
0.0 0.0 0.0 0.0 0.0 0.0 0.0 0.0 0.0 0.0 0.0 0.0 0.0 0.0 0.0 0.0 0.0 0.2 0.0 0.0 0.0 0.0 5.9 28.2 15.4 8.7 0.0 4.4 5.8 0.0 2.1 3.9 10.1 8.8 7.7 4.1 2.8 6.5 22.2 0.4 0.3 1.1 1.2 1.5 1.1 0.7 2.3 2.5 2.1 1.6 0.9 0.9 0.6 0.7
0.0 0.0 0.0 0.0 0.0 0.0 0.0 0.0 0.0 0.0 0.0 0.0 0.0 0.0 0.0 0.0 17.3 1.3 0.0 0.0 0.0 0.0 26.9 12.5 8.8 17.5 1.3 5.3 3.3 4.4 2.3 20.1 5.5 11.2 4.1 1.4 10.8 23.2 7.2 2.3 3.4 2.9 3.5 3.3 2.0 0.9 1.5 3.9 3.3 1.8 1.4 1.3 1.0 1.6
0.0 0.0 0.0 0.0 0.0 0.0 0.0 0.0 0.0 0.0 0.0 0.0 0.0 8.8 58.8 7.6 0.0 0.0 0.0 16.4 19.9 14.9 10.3 10.7 0.4 9.3 2.0 8.2 10.3 10.3 10.3 12.8 17.9 4.9 1.6 11.2 7.8 4.8 2.4 2.7 3.6 5.5 4.4 4.9 7.6 5.2 1.4 2.9 1.6 1.2 0.5 0.4 0.3 1.9
0.0 0.0 0.0 0.0 0.0 0.0 0.0 0.0 0.0 0.0 0.0 0.0 18.5 26.4 1.9 0.0 0.0 8.1 33.0 28.6 17.7 19.0 4.5 3.1 2.1 4.2 1.0 15.6 15.8 6.4 16.7 7.9 13.2 3.5 4.8 9.6 7.5 6.2 2.9 4.4 3.5 5.6 6.1 6.8 6.4 4.5 2.2 1.1 0.8 0.5 1.6 1.9 2.1 4.2
0.0 0.0 0.0 0.0 0.0 0.0 0.0 0.0 0.0 0.0 0.0 0.0 0.0 0.0 0.6 4.7 17.0 24.7 20.7 10.8 4.7 5.0 3.8 3.8 4.0 2.6 5.2 2.5 15.7 18.3 20.9 14.0 13.8 3.4 19.6 11.5 9.6 3.5 3.8 4.7 4.3 4.7 6.8 6.0 6.9 12.5 8.6 3.5 2.3 3.5 4.0 5.5 6.1 7.2
0.0 0.0 0.0 0.0 0.0 0.0 0.0 0.0 0.0 0.0 0.0 0.0 3.4 21.3 23.6 23.7 31.0 19.5 11.2 4.8 4.2 2.0 2.4 3.0 7.7 3.7 3.7 2.1 15.1 15.2 20.4 18.4 5.1 23.3 14.4 9.4 3.4 1.7 1.9 2.8 3.8 3.5 4.9 5.2 8.9 12.0 10.3 12.5 12.9 11.0 14.0 16.4 15.7 18.8
0.0 0.0 0.0 0.0 0.0 0.0 0.0 0.0 0.0 0.0 0.0 12.6 19.6 31.9 24.9 21.1 11.6 9.6 3.8 4.0 2.5 2.6 2.9 3.9 8.2 7.9 5.4 11.5 13.1 23.0 10.7 8.4 19.2 20.7 12.4 10.4 8.3 5.8 3.5 3.7 4.5 8.2 7.7 7.9 12.1 14.0 14.6 16.1 22.6 23.2 22.3 22.5 19.0 21.9
0.0 0.0 0.0 0.0 0.0 0.0 0.0 0.0 0.0 0.0 4.0 15.4 14.8 21.6 12.0 12.4 7.0 6.6 5.1 3.4 3.4 4.0 7.5 10.9 11.2 8.5 10.8 15.3 10.0 10.7 15.5 13.1 11.1 12.0 15.3 12.8 8.9 5.7 6.3 6.1 6.8 8.7 9.5 11.3 12.0 12.5 13.9 12.9 11.2 18.1 19.6 17.2 13.1 14.9
0.0 0.0 0.0 0.0 0.0 0.0 0.0 0.0 0.5 1.0 4.9 6.6 8.6 9.8 6.9 9.2 10.6 8.6 7.4 7.5 2.9 6.5 4.0 9.3 16.7 20.3 17.6 11.4 13.3 9.9 7.8 9.3 13.9 10.3 9.4 5.9 6.2 6.8 7.9 8.2 10.1 10.8 10.1 10.7 10.5 9.0 9.7 9.1 7.0 10.3 10.6 9.6 10.0 7.9
0.0 1.0 0.0 0.0 0.0 0.0 0.0 1.3 2.4 5.9 5.5 5.3 9.5 9.0 8.4 9.3 12.6 10.6 9.0 7.3 3.7 8.8 10.5 6.2 13.1 15.1 8.9 9.8 11.7 9.1 15.0 14.2 13.1 11.2 7.0 5.6 6.8 8.8 9.5 10.1 11.4 10.6 9.3 8.4 8.1 7.7 8.4 7.7 6.2 4.7 7.0 10.1 7.7 7.5
0.3 0.0 0.0 0.0 0.0 0.0 1.6 1.2 3.0 3.3 4.5 6.4 10.2 12.1 8.7 12.5 12.6 9.7 8.6 6.6 7.8 7.2 4.7 10.4 2.4 5.8 7.0 8.0 9.2 13.8 13.4 10.8 7.6 7.9 9.6 10.1 9.4 9.5 9.8 11.3 11.9 10.3 9.2 9.7 8.9 8.6 8.7 8.5 6.9 8.7 8.0 8.2 6.3 6.7
0.1 0.0 0.0 0.0 0.0 1.3 4.8 4.3 1.8 5.6 7.6 6.3 8.1 6.5 6.0 8.4 8.0 8.6 7.3 5.8 7.6 6.2 7.0 7.8 8.0 8.0 12.1 12.4 13.2 11.7 10.8 8.1 10.6 11.9 12.4 12.1 11.5 11.4 12.5 11.4 11.7 11.7 10.7 11.4 9.6 9.1 9.5 8.8 7.7 7.3 6.8 6.0 6.0 5.7
0.0 0.0 0.0 0.0 0.0 1.3 3.2 2.1 0.3 0.2 5.0 5.9 4.9 4.3 3.5 6.1 4.0 2.7 1.9 3.1 5.0 10.0 13.1 11.8 15.7 19.1 18.4 17.4 14.7 12.9 12.1 7.9 7.3 7.7 12.3 13.8 14.3 11.5 12.7 10.6 10.7 10.5 8.9 9.3 9.2 8.4 7.1 6.6 6.6 5.7 4.5 3.0 3.5 3.8
0.0 0.0 0.0 0.0 0.4 0.7 1.1 2.7 3.0 0.5 1.0 2.8 1.2 0.5 2.7 0.4 0.4 0.6 0.5 1.3 7.3 12.9 17.8 20.3 20.3 19.6 18.1 16.8 12.6 10.3 10.6 7.7 9.3 6.9 9.1 12.9 13.9 9.0 10.4 10.8 9.3 8.3 7.7 8.7 8.2 8.9 6.7 6.4 4.8 3.8 4.4 5.0 3.9 4.4
0.0 0.0 1.0 0.1 2.4 1.5 1.5 0.0 0.5 1.0 0.6 0.9 0.6 0.7 1.4 1.9 0.9 1.0 0.2 1.9 9.7 14.4 15.2 15.4 15.1 13.7 12.2 14.1 14.9 11.2 12.2 8.1 7.2 6.6 7.9 6.7 10.1 10.0 11.3 11.8 8.9 9.4 8.9 8.8 6.5 5.7 4.7 3.7 3.3 3.3 3.9 4.8 4.7 5.8
0.0 1.3 3.9 2.8 4.2 1.9 0.7 0.1 0.6 0.9 2.0 0.8 0.5 0.9 0.9 2.1 1.7 0.3 1.7 2.2 10.0 12.5 9.5 7.7 9.3 8.9 9.9 12.7 8.3 9.0 10.1 7.6 7.9 8.5 9.0 8.9 8.7 8.8 7.7 8.2 6.9 5.5 5.6 6.1 4.4 4.6 5.2 4.3 3.8 4.3 4.3 4.1 6.0 6.2
0.0 5.6 7.8 4.6 2.7 3.5 1.0 2.1 0.8 0.4 0.7 1.4 1.1 0.8 1.1 1.0 0.2 1.0 2.8 6.6 10.9 6.2 5.1 7.2 5.6 5.6 5.3 5.2 7.5 9.1 10.9 7.0 6.6 7.0 7.4 4.5 4.2 5.2 3.4 4.1 4.3 4.6 5.3 4.5 3.8 4.5 4.4 5.4 5.6 5.0 4.8 5.5 6.4 5.7
5.4 3.3 5.0 3.6 1.7 1.6 0.7 0.8 1.1 0.6 0.5 0.3 1.0 1.0 1.1 0.0 1.0 1.1 2.6 8.4 7.0 6.5 6.0 4.8 3.0 3.1 5.0 7.4 8.5 8.1 5.7 3.5 3.6 4.4 5.3 3.2 3.4 3.5 3.3 3.3 3.5 4.1 3.6 3.6 3.9 5.1 5.7 5.2 5.6 5.1 5.0 5.1 6.1 6.0
4.5 0.8 1.6 1.4 1.2 1.0 0.3 0.5 0.5 0.9 0.4 0.7 2.1 1.2 0.5 0.9 1.2 3.3 5.7 9.3 7.7 7.2 7.6 7.2 5.5 3.3 3.1 3.1 3.8 3.4 3.6 2.5 1.9 2.7 3.6 2.4 2.9 3.9 3.7 3.7 3.7 4.2 2.9 4.5 5.4 6.1 4.9 4.2 4.7 4.3 5.4 5.0 5.9 6.1
2.6 1.5 0.5 0.0 1.7 2.6 2.6 1.5 1.5 2.0 2.2 2.7 2.4 2.1 2.9 3.2 4.4 7.3 7.2 6.8 5.8 6.2 4.5 3.9 2.4 2.3 2.9 3.0 1.7 1.6 1.3 0.9 1.2 2.8 3.3 2.8 2.6 3.0 3.7 6.1 6.6 6.4 3.8 4.3 4.8 5.2 5.5 5.4 5.5 5.1 5.4 6.2 5.8 6.3
0.3 0.5 1.3 2.1 3.0 3.1 4.9 3.9 3.6 4.3 4.1 3.3 3.1 3.5 3.4 4.4 7.4 8.8 7.7 6.5 5.4 2.9 2.0 1.6 1.6 1.8 2.1 2.6 2.6 2.2 1.9 1.6 1.8 2.3 2.6 2.5 2.2 3.4 3.9 3.4 3.3 2.6 2.8 3.5 3.7 3.6 4.1 4.9 6.1 6.2 6.6 6.3 6.7 6.1
1.3 0.9 1.0 1.7 1.9 1.6 2.9 3.7 4.0 4.1 3.2 3.0 3.2 3.3 4.1 4.7 10.1 9.3 7.8 5.9 4.0 2.5 2.6 2.4 4.0 2.2 2.0 3.1 1.9 1.8 2.4 2.9 4.2 5.2 6.0 7.8 6.4 5.7 3.3 2.7 2.6 2.4 2.3 2.5 2.3 2.7 3.6 4.3 5.5 5.3 6.7 6.7 7.2 7.3
0.7 0.6 0.7 0.3 0.5 0.7 4.2 2.0 2.6 2.2 0.5 1.4 1.0 0.9 1.2 8.0 12.1 8.4 6.8 5.0 4.6 5.6 6.8 5.2 4.7 2.6 4.0 1.9 4.4 3.1 3.4 3.7 4.4 5.9 7.4 7.0 6.7 5.1 2.8 2.4 2.0 2.1 2.1 2.5 2.7 2.9 3.0 2.7 3.5 3.6 4.7 5.2 7.1 8.1
1.0 1.8 2.5 2.0 2.3 3.6 2.9 1.3 1.6 1.9 2.2 2.3 2.4 2.4 4.1 6.5 9.3 5.6 5.7 7.8 4.8 3.8 3.1 3.5 3.7 4.5 4.5 4.4 5.5 5.1 7.4 5.4 5.0 5.3 6.1 6.5 4.9 3.4 2.7 2.1 2.2 1.9 2.1 1.9 2.3 2.5 3.4 3.6 4.7 5.6 4.8 5.1 5.5 6.3
2.2 4.2 4.6 4.2 5.5 3.5 3.9 5.7 3.7 4.3 4.0 4.1 4.4 2.1 4.9 5.1 4.1 6.9 5.3 5.2 5.5 5.4 5.2 5.6 5.9 7.3 7.0 8.3 7.7 7.5 7.2 6.2 4.5 4.0 4.0 3.8 3.9 3.1 2.4 1.7 2.2 2.5 2.4 2.2 2.5 2.3 2.8 3.9 5.0 5.4 6.0 5.4 5.8 5.6
3.1 3.4 3.9 5.3 5.6 5.6 4.6 6.1 5.3 6.3 5.4 5.3 5.9 5.8 6.2 4.9 6.6 9.8 4.9 5.5 11.2 11.4 9.4 8.9 9.1 8.9 9.2 7.6 6.3 6.6 6.3 5.9 5.2 3.6 3.3 2.6 2.0 1.7 1.4 1.9 1.9 2.6 2.7 2.9 3.1 3.1 3.2 3.1 3.6 3.7 3.5 3.8 3.8 3.4

GFSWCAN_prec_kuchsnow_273.txt.gz
Snowfall_Accumulation
0.0 0.0 0.0 0.0 0.0 0.0 0.0 0.0 0.0 0.0 0.0 0.0 0.0 0.0 0.0 0.0 0.0 0.0 0.0 0.0 0.0 17.7 3.5 0.0 0.0 0.4 0.5 0.2 3.2 3.3 3.5 5.7 5.2 11.0 15.3 15.9 11.8 2.4 1.5 0.9 3.7 2.3 7.6 11.1 8.9 19.3 17.0 0.0 0.0 1.5 2.3 0.4 0.2 0.2
0.0 0.0 0.0 0.0 0.0 0.0 0.0 0.0 0.0 0.0 0.0 0.0 0.0 0.0 0.0 0.0 0.0 0.0 0.0 0.0 0.0 2.1 5.7 0.0 0.0 0.0 0.0 0.0 0.0 0.0 0.6 0.4 1.0 7.7 5.7 6.3 15.9 7.6 4.1 7.7 0.0 9.5 2.1 5.9 6.7 5.7 1.0 0.1 0.8 0.5 0.3 0.2 0.2 0.0
0.0 0.0 0.0 0.0 0.0 0.0 0.0 0.0 0.0 0.0 0.0 0.0 0.0 0.0 0.0 0.0 0.0 0.0 0.0 0.0 0.0 8.8 9.5 0.0 1.9 0.0 0.0 0.0 0.0 2.2 0.1 0.0 0.0 0.0 6.9 8.7 22.0 3.7 10.5 3.4 2.5 2.2 0.9 5.3 2.6 1.9 0.4 0.1 0.1 0.1 0.1 0.1 0.0 0.1
0.0 0.0 0.0 0.0 0.0 0.0 0.0 0.0 0.0 0.0 0.0 0.0 0.0 0.0 0.0 0.0 0.0 0.0 0.0 0.0 0.0 1.1 33.3 15.3 0.0 0.0 0.0 0.0 0.0 0.0 0.0 0.0 0.0 0.0 23.4 26.5 21.6 4.4 9.6 2.6 2.2 0.7 2.0 6.7 5.8 2.5 1.3 0.6 0.6 0.8 0.2 0.0 0.0 0.0
0.0 0.0 0.0 0.0 0.0 0.0 0.0 0.0 0.0 0.0 0.0 0.0 0.0 0.0 0.0 0.0 0.0 0.0 0.0 0.0 0.0 0.0 26.1 9.4 0.3 0.0 0.0 0.0 0.0 0.0 0.0 0.0 2.8 20.9 30.7 22.1 6.2 6.4 5.9 5.1 6.4 1.1 5.7 5.6 16.4 6.9 4.0 3.6 2.2 1.4 1.2 0.1 0.1 0.0
0.0 0.0 0.0 0.0 0.0 0.0 0.0 0.0 0.0 0.0 0.0 0.0 0.0 0.0 0.0 0.0 0.0 0.0 22.5 0.0 0.0 0.0 10.8 20.9 1.3 1.2 0.0 0.0 0.0 0.0 0.0 0.0 2.3 13.6 18.6 8.8 0.0 1.1 19.7 9.3 1.0 1.1 1.5 2.3 7.4 6.7 5.3 4.5 2.9 1.9 1.9 1.5 0.2 0.0
0.0 0.0 0.0 0.0 0.0 0.0 0.0 0.0 0.0 0.0 0.0 0.0 0.0 0.0 0.0 0.0 0.0 3.3 7.5 0.0 0.0 0.0 19.1 27.9 9.9 1.4 0.0 0.0 0.0 0.0 0.0 0.4 1.5 8.5 14.9 5.8 1.1 1.4 17.3 12.8 1.2 1.4 2.0 2.0 2.5 3.7 7.5 3.9 4.4 1.9 1.3 1.3 0.5 0.7
0.0 0.0 0.0 0.0 0.0 0.0 0.0 0.0 0.0 0.0 0.0 0.0 0.0 0.0 0.0 0.0 0.0 0.2 0.0 0.0 0.0 0.0 5.9 28.2 15.4 8.7 0.0 4.4 5.8 0.0 2.1 3.9 10.1 8.8 7.8 4.1 2.8 6.8 22.6 0.4 0.3 1.1 1.2 1.5 1.1 0.7 2.3 4.0 2.9 1.9 1.4 1.5 1.5 1.5
0.0 0.0 0.0 0.0 0.0 0.0 0.0 0.0 0.0 0.0 0.0 0.0 0.0 0.0 0.0 0.0 17.3 1.3 0.0 0.0 0.0 0.0 27.3 12.6 8.8 17.5 1.3 5.3 3.3 4.4 2.3 20.2 5.5 11.4 4.1 1.5 10.8 23.4 7.2 2.5 3.4 2.9 4.6 4.3 2.0 0.9 1.5 4.6 3.3 1.8 1.4 1.8 1.6 2.6
0.0 0.0 0.0 0.0 0.0 0.0 0.0 0.0 0.0 0.0 0.0 0.0 0.0 8.8 58.8 7.6 0.0 0.0 0.0 16.4 19.9 14.9 10.3 10.8 0.4 9.3 2.0 8.2 10.3 10.3 10.3 12.8 18.0 4.9 1.6 11.4 7.8 4.8 2.4 2.7 3.6 5.5 4.4 5.5 8.4 6.2 2.5 3.3 1.8 1.2 0.6 0.4 0.7 2.4
0.0 0.0 0.0 0.0 0.0 0.0 0.0 0.0 0.0 0.0 0.0 0.0 18.5 26.4 1.9 0.0 0.0 8.1 33.1 29.0 18.0 19.2 4.5 3.2 2.1 4.2 1.0 15.6 15.8 6.4 16.7 8.0 13.3 3.5 4.9 9.6 7.5 6.2 2.9 4.4 3.5 5.6 6.1 7.1 7.2 5.8 3.0 1.2 0.9 0.6 1.9 2.3 2.3 4.3
0.0 0.0 0.0 0.0 0.0 0.0 0.0 0.0 0.0 0.0 0.0 0.0 0.0 0.0 0.6 5.1 17.6 25.1 21.0 10.9 4.7 5.0 3.8 3.8 4.0 2.6 5.2 2.5 15.7 18.3 20.9 14.0 13.8 3.4 19.7 11.5 9.6 3.5 3.8 4.7 4.3 4.7 6.8 6.0 6.9 12.5 9.0 3.6 2.3 3.5 4.1 5.6 6.3 7.5
0.0 0.0 0.0 0.0 0.0 0.0 0.0 0.0 0.0 0.0 0.0 0.0 3.4 21.9 24.5 24.2 31.5 19.7 11.2 4.8 4.2 2.0 2.4 3.0 7.7 3.7 3.8 2.1 15.3 15.4 20.5 18.5 5.1 23.4 14.4 9.4 3.4 1.7 1.9 2.8 3.8 3.5 4.9 5.2 8.9 12.0 10.9 13.0 13.2 11.4 14.4 17.0 16.3 19.8
0.0 0.0 0.0 0.0 0.0 0.0 0.0 0.0 0.0 0.0 0.0 13.1 20.2 33.0 25.5 21.3 11.6 9.6 3.8 4.0 2.5 2.6 2.9 3.9 8.3 7.9 5.5 11.6 13.1 23.0 10.7 8.4 19.3 20.8 12.4 10.4 8.3 5.8 3.5 3.7 4.5 8.2 7.7 7.9 12.1 14.0 14.6 16.7 23.2 23.9 23.1 23.9 19.8 22.5
0.0 0.0 0.0 0.0 0.0 0.0 0.0 0.0 0.0 0.0 4.6 16.1 15.2 22.0 12.2 12.4 7.0 6.6 5.1 3.4 3.4 4.0 7.5 10.9 11.2 8.5 10.8 15.3 10.0 10.7 15.5 13.1 11.1 12.0 15.3 12.8 8.9 5.7 6.3 6.1 6.8 8.7 9.5 11.3 12.0 12.5 13.9 12.9 11.2 18.3 20.1 18.1 13.1 14.9
0.0 0.0 0.0 0.0 0.0 0.0 0.0 0.0 0.5 1.0 5.8 7.1 9.0 10.1 6.9 9.2 10.6 8.6 7.4 7.5 2.9 6.5 4.0 9.3 16.7 20.3 17.6 11.4 13.4 9.9 7.8 9.3 13.9 10.3 9.4 5.9 6.2 6.8 7.9 8.2 10.1 10.8 10.1 10.7 10.5 9.0 9.7 9.1 7.0 10.5 10.6 9.6 10.1 7.9
0.0 1.2 0.0 0.0 0.0 0.0 0.0 1.3 3.0 7.2 6.3 5.7 9.5 9.0 8.4 9.3 12.6 10.6 9.0 7.3 3.7 8.8 10.5 6.2 13.1 15.1 8.9 9.8 11.7 9.1 15.0 14.2 13.1 11.2 7.0 5.6 6.8 8.8 9.5 10.1 11.4 10.6 9.3 8.4 8.1 7.7 8.4 7.7 6.2 4.7 7.0 10.1 7.7 7.5
0.5 0.0 0.0 0.0 0.0 0.0 1.6 1.3 3.7 4.0 5.2 6.5 10.2 12.1 8.7 12.5 12.6 9.7 8.6 6.6 7.8 7.2 4.7 10.4 2.4 6.0 7.1 8.0 9.2 13.8 13.4 10.8 7.6 7.9 9.6 10.1 9.4 9.5 9.8 11.3 11.9 10.3 9.2 9.7 8.9 8.6 8.7 8.5 6.9 8.7 8.0 8.2 6.3 6.7
0.1 0.0 0.0 0.0 0.7 3.0 5.4 4.5 1.8 6.7 7.9 6.3 8.1 6.5 6.0 8.4 8.0 8.6 7.3 5.8 7.6 6.2 7.0 7.8 8.0 8.1 12.1 12.4 13.2 11.7 10.8 8.1 10.6 11.9 12.4 12.1 11.5 11.4 12.5 11.4 11.7 11.7 10.7 11.4 9.6 9.1 9.5 8.8 7.7 7.3 6.8 6.0 6.0 5.7
0.0 0.0 0.0 0.0 0.9 3.5 4.0 2.6 0.5 0.2 5.1 6.0 4.9 4.3 3.5 6.1 4.0 2.7 1.9 3.1 5.0 10.0 13.1 11.8 15.7 19.1 18.4 17.4 14.7 12.9 12.1 7.9 7.3 7.7 12.3 13.8 14.3 11.5 12.7 10.6 10.7 10.5 8.9 9.3 9.2 8.4 7.1 6.6 6.6 5.7 4.5 3.0 3.5 3.8
0.0 0.0 0.0 0.2 1.3 1.8 1.8 3.2 3.4 0.5 1.0 2.8 1.2 0.5 2.7 0.4 0.4 0.6 0.5 1.3 7.3 12.9 17.8 20.3 20.3 19.6 18.1 16.8 12.6 10.3 10.6 7.7 9.3 6.9 9.1 12.9 13.9 9.0 10.4 10.8 9.3 8.3 7.7 8.7 8.2 8.9 6.7 6.4 4.8 3.8 4.4 5.0 3.9 4.4
0.0 0.0 1.3 0.4 3.5 2.3 1.9 0.0 0.5 1.3 0.6 0.9 0.6 0.7 1.4 1.9 0.9 1.0 0.2 1.9 9.7 14.4 15.2 15.4 15.1 13.7 12.2 14.1 14.9 11.2 12.2 8.1 7.2 6.6 7.9 6.7 10.1 10.0 11.3 11.8 8.9 9.4 8.9 8.8 6.5 5.7 4.7 3.7 3.3 3.3 3.9 4.8 4.7 5.8
0.0 1.3 4.6 3.6 5.4 2.8 1.0 0.1 0.6 0.9 2.9 1.4 0.5 0.9 0.9 2.1 1.7 0.3 1.7 2.2 10.0 12.5 9.5 7.7 9.3 8.9 9.9 12.7 8.3 9.0 10.1 7.6 7.9 8.5 9.0 8.9 8.7 8.8 7.7 8.2 6.9 5.5 5.6 6.1 4.4 4.6 5.2 4.3 3.8 4.3 4.3 4.1 6.0 6.2
0.0 5.6 7.8 5.1 3.1 3.8 1.0 2.2 0.8 0.4 0.7 1.4 2.3 1.0 1.1 1.0 0.2 1.0 2.9 6.6 10.9 6.2 5.1 7.2 5.6 5.6 5.3 5.2 7.5 9.1 10.9 7.0 6.6 7.0 7.4 4.5 4.2 5.2 3.4 4.1 4.3 4.6 5.3 4.5 3.8 4.5 4.4 5.4 5.6 5.0 4.8 5.5 6.4 5.7
5.6 3.3 5.0 4.7 1.7 1.6 0.9 0.8 1.1 0.7 0.5 0.3 2.4 2.9 1.1 0.0 1.0 1.1 2.6 8.4 7.0 6.5 6.0 4.8 3.0 3.1 5.0 7.4 8.5 8.1 5.7 3.5 3.6 4.4 5.3 3.2 3.4 3.5 3.3 3.3 3.5 4.1 3.6 3.6 3.9 5.1 5.7 5.2 5.6 5.1 5.0 5.1 6.1 6.0
5.2 0.8 1.6 2.0 1.4 1.0 0.3 0.5 0.5 0.9 0.4 0.8 2.3 1.2 1.9 1.7 1.2 3.4 5.7 9.3 7.7 7.2 7.6 7.2 5.5 3.3 3.1 3.1 3.8 3.4 3.6 2.5 1.9 2.7 3.6 2.4 2.9 3.9 3.7 3.7 3.7 4.2 2.9 4.5 5.4 6.1 4.9 4.2 4.7 4.3 5.4 5.0 5.9 6.1
4.4 1.6 0.5 0.0 1.7 2.6 2.6 1.5 1.5 2.0 2.2 2.7 2.4 2.1 3.9 4.7 4.8 7.3 7.2 6.8 5.8 6.2 4.5 3.9 2.4 2.3 2.9 3.0 1.7 1.6 1.3 0.9 1.2 2.8 3.3 2.8 2.6 3.0 3.7 6.1 6.6 6.4 3.8 4.3 4.8 5.2 5.5 5.4 5.5 5.1 5.4 6.2 5.8 6.3
0.3 0.7 1.4 2.1 3.0 3.3 5.1 3.9 3.6 4.3 4.1 3.3 3.1 3.5 3.7 4.4 7.7 8.8 7.7 6.5 5.4 2.9 2.0 1.6 1.6 1.8 2.1 2.6 2.6 2.2 1.9 1.6 1.8 2.3 2.6 2.5 2.2 3.4 3.9 3.4 3.3 2.6 2.8 3.5 3.7 3.6 4.1 4.9 6.1 6.2 6.6 6.3 6.7 6.1
1.4 0.9 1.0 1.7 1.9 1.6 2.9 3.7 4.0 4.1 3.2 3.0 3.2 3.3 4.1 4.7 10.1 9.3 7.8 5.9 4.0 2.5 2.6 2.4 4.0 2.2 2.0 3.1 1.9 1.8 2.4 2.9 4.2 5.2 6.0 7.8 6.4 5.7 3.3 2.7 2.6 2.4 2.3 2.5 2.3 2.7 3.6 4.3 5.5 5.3 6.7 6.7 7.2 7.3
0.7 0.6 0.7 0.3 0.5 0.7 4.2 2.1 2.6 2.2 0.5 1.4 1.0 0.9 1.2 8.0 12.1 8.4 6.8 5.0 4.6 5.6 6.8 5.2 4.7 2.6 4.0 1.9 4.4 3.1 3.4 3.7 4.4 5.9 7.4 7.0 6.7 5.1 2.8 2.4 2.0 2.1 2.1 2.5 2.7 2.9 3.0 2.7 3.5 3.6 4.7 5.2 7.1 8.1
1.0 1.8 2.5 2.0 2.3 3.6 2.9 1.3 1.6 1.9 2.2 2.3 2.4 2.4 4.1 6.5 9.3 5.6 5.7 7.8 4.8 3.8 3.1 3.5 3.7 4.5 4.5 4.4 5.5 5.1 7.4 5.4 5.0 5.3 6.1 6.5 4.9 3.4 2.7 2.1 2.2 1.9 2.1 1.9 2.3 2.5 3.4 3.6 4.7 5.6 4.8 5.1 5.5 6.3
2.2 4.2 4.6 4.2 5.5 3.5 3.9 5.7 3.7 4.3 4.0 4.1 4.4 2.3 4.9 5.1 4.1 6.9 5.3 5.2 5.5 5.4 5.2 5.6 5.9 7.3 7.0 8.3 7.7 7.5 7.2 6.2 4.5 4.0 4.0 3.8 3.9 3.1 2.4 1.7 2.2 2.5 2.4 2.2 2.5 2.3 2.8 3.9 5.0 5.4 6.0 5.4 5.8 5.6
3.1 3.4 3.9 5.3 5.6 5.6 4.6 6.1 5.3 6.3 5.4 5.3 5.9 6.6 6.6 4.9 6.6 9.8 4.9 5.5 11.2 11.4 9.4 8.9 9.1 8.9 9.2 7.6 6.3 6.6 6.3 5.9 5.2 3.6 3.3 2.6 2.0 1.7 1.4 1.9 1.9 2.6 2.7 2.9 3.1 3.1 3.4 3.2 3.7 3.8 3.6 3.8 3.8 3.4

GFSWCAN_prec_kuchsnow_276.txt.gz
Snowfall_Accumulation
0.0 0.0 0.0 0.0 0.0 0.0 0.0 0.0 0.0 0.0 0.0 0.0 0.0 0.0 0.0 0.0 0.0 0.0 0.0 0.0 0.0 17.7 3.5 0.0 0.0 0.4 0.5 0.2 3.2 3.3 3.5 5.7 5.2 11.0 15.3 15.9 11.8 2.4 1.5 0.9 3.7 2.3 7.6 11.1 8.9 19.3 17.1 0.0 0.0 1.5 2.3 0.4 0.2 0.2
0.0 0.0 0.0 0.0 0.0 0.0 0.0 0.0 0.0 0.0 0.0 0.0 0.0 0.0 0.0 0.0 0.0 0.0 0.0 0.0 0.0 2.1 5.7 0.0 0.0 0.0 0.0 0.0 0.0 0.0 0.6 0.4 1.0 7.7 5.7 6.3 15.9 7.6 4.1 7.7 0.0 9.5 2.1 5.9 6.7 5.7 1.0 0.1 0.8 0.5 0.3 0.2 0.2 0.0
0.0 0.0 0.0 0.0 0.0 0.0 0.0 0.0 0.0 0.0 0.0 0.0 0.0 0.0 0.0 0.0 0.0 0.0 0.0 0.0 0.0 8.8 9.5 0.0 1.9 0.0 0.0 0.0 0.0 2.2 0.1 0.0 0.0 0.0 6.9 8.7 22.0 3.7 10.5 3.4 2.5 2.2 0.9 5.3 2.6 1.9 0.4 0.1 0.1 0.1 0.1 0.1 0.0 0.1
0.0 0.0 0.0 0.0 0.0 0.0 0.0 0.0 0.0 0.0 0.0 0.0 0.0 0.0 0.0 0.0 0.0 0.0 0.0 0.0 0.0 1.1 33.3 15.3 0.0 0.0 0.0 0.0 0.0 0.0 0.0 0.0 0.0 0.0 23.4 26.6 21.6 4.4 9.6 2.6 2.2 0.7 2.0 6.7 5.8 2.5 1.3 0.6 0.6 0.8 0.2 0.0 0.0 0.0
0.0 0.0 0.0 0.0 0.0 0.0 0.0 0.0 0.0 0.0 0.0 0.0 0.0 0.0 0.0 0.0 0.0 0.0 0.0 0.0 0.0 0.0 26.2 9.4 0.3 0.0 0.0 0.0 0.0 0.0 0.0 0.0 2.8 20.9 30.8 22.1 6.2 6.4 5.9 5.1 6.4 1.1 5.7 5.7 17.0 6.9 5.4 3.6 2.2 1.4 1.5 0.6 0.2 0.2
0.0 0.0 0.0 0.0 0.0 0.0 0.0 0.0 0.0 0.0 0.0 0.0 0.0 0.0 0.0 0.0 0.0 0.0 22.5 0.0 0.0 0.0 10.8 20.9 1.3 1.2 0.0 0.0 0.0 0.0 0.0 0.0 2.3 13.6 18.6 8.8 0.0 1.1 19.9 9.3 1.0 1.1 1.5 2.3 8.6 7.3 5.3 4.5 2.9 1.9 2.2 1.9 0.4 0.4
0.0 0.0 0.0 0.0 0.0 0.0 0.0 0.0 0.0 0.0 0.0 0.0 0.0 0.0 0.0 0.0 0.0 3.3 7.5 0.0 0.0 0.0 19.1 27.9 9.9 1.4 0.0 0.0 0.0 0.0 0.0 0.4 1.5 8.6 15.1 5.8 1.1 1.6 17.4 12.8 1.2 1.4 2.0 2.0 2.5 3.7 7.5 3.9 4.8 2.0 1.3 1.3 0.5 0.9
0.0 0.0 0.0 0.0 0.0 0.0 0.0 0.0 0.0 0.0 0.0 0.0 0.0 0.0 0.0 0.0 0.0 0.2 0.0 0.0 0.0 0.0 5.9 28.2 15.4 8.7 0.0 4.4 5.8 0.0 2.1 4.0 10.2 8.9 7.8 4.2 2.8 6.9 22.7 0.4 0.3 1.1 1.2 1.5 1.1 0.7 2.3 4.0 2.9 1.9 1.4 1.5 1.5 1.6
0.0 0.0 0.0 0.0 0.0 0.0 0.0 0.0 0.0 0.0 0.0 0.0 0.0 0.0 0.0 0.0 17.3 1.3 0.0 0.0 0.0 0.0 27.4 12.7 8.8 17.5 1.3 5.3 3.3 4.4 2.3 20.3 5.5 11.6 4.1 1.5 10.9 23.5 7.2 2.5 3.4 2.9 4.7 4.4 2.0 0.9 1.5 4.6 3.3 1.8 1.4 1.8 1.6 3.1
0.0 0.0 0.0 0.0 0.0 0.0 0.0 0.0 0.0 0.0 0.0 0.0 0.0 8.8 58.8 7.6 0.0 0.0 0.0 16.4 19.9 14.9 10.3 10.9 0.4 9.3 2.0 8.2 10.3 10.3 10.3 12.9 18.2 4.9 1.6 11.6 7.8 4.8 2.4 2.7 3.6 5.5 4.4 5.5 8.4 6.2 2.5 3.3 1.9 1.3 0.6 0.5 0.9 2.8
0.0 0.0 0.0 0.0 0.0 0.0 0.0 0.0 0.0 0.0 0.0 0.0 18.5 26.4 1.9 0.0 0.0 8.1 33.3 29.0 18.0 19.4 4.6 3.2 2.1 4.2 1.0 15.6 15.8 6.4 16.7 8.0 13.4 3.5 4.9 9.6 7.5 6.2 2.9 4.4 3.5 5.6 6.1 7.1 7.4 6.2 3.3 1.3 1.0 0.6 1.9 2.4 2.4 4.4
0.0 0.0 0.0 0.0 0.0 0.0 0.0 0.0 0.0 0.0 0.0 0.0 0.0 0.0 0.6 5.1 18.0 25.3 21.1 10.9 4.7 5.0 3.8 3.8 4.0 2.6 5.2 2.5 15.7 18.4 21.0 14.1 13.9 3.4 19.7 11.5 9.6 3.5 3.8 4.7 4.3 4.7 6.8 6.0 7.0 12.6 9.1 3.7 2.5 3.7 4.1 6.0 6.8 8.0
0.0 0.0 0.0 0.0 0.0 0.0 0.0 0.0 0.0 0.0 0.0 0.0 3.4 22.0 24.8 24.4 32.0 19.9 11.2 4.8 4.2 2.0 2.4 3.0 7.7 3.7 3.8 2.1 15.3 15.5 20.6 18.5 5.1 23.4 14.4 9.4 3.4 1.7 1.9 2.8 3.8 3.5 4.9 5.2 8.9 12.0 11.0 13.2 13.4 11.4 14.6 17.0 16.3 20.2
0.0 0.0 0.0 0.0 0.0 0.0 0.0 0.0 0.0 0.0 0.0 13.6 20.8 33.4 25.8 21.6 11.6 9.6 3.8 4.0 2.5 2.6 2.9 3.9 8.3 8.0 5.5 11.7 13.1 23.1 10.7 8.4 19.4 20.9 12.4 10.4 8.3 5.8 3.5 3.7 4.5 8.2 7.7 7.9 12.1 14.0 14.6 16.8 23.2 24.0 23.2 23.9 19.8 22.5
0.0 0.0 0.0 0.0 0.0 0.0 0.0 0.0 0.0 0.0 4.6 16.7 15.6 22.2 12.2 12.4 7.0 6.6 5.1 3.4 3.4 4.0 7.5 11.0 11.2 8.5 10.8 15.3 10.1 10.7 15.7 13.2 11.1 12.0 15.3 12.8 8.9 5.7 6.3 6.1 6.8 8.7 9.5 11.3 12.0 12.5 13.9 12.9 11.2 18.4 20.3 18.1 13.1 14.9
0.0 0.0 0.0 0.0 0.0 0.0 0.0 0.0 0.5 1.0 6.1 7.5 9.4 10.2 6.9 9.2 10.6 8.6 7.4 7.5 2.9 6.5 4.0 9.3 16.7 20.3 17.7 11.4 13.5 9.9 7.8 9.3 13.9 10.3 9.4 5.9 6.2 6.8 7.9 8.2 10.1 10.8 10.1 10.7 10.5 9.0 9.7 9.1 7.0 10.5 10.6 9.6 10.2 7.9
0.0 1.4 0.0 0.0 0.0 0.0 0.0 1.3 3.2 7.8 6.7 6.0 9.6 9.0 8.4 9.3 12.6 10.6 9.0 7.3 3.7 8.8 10.6 6.2 13.1 15.1 8.9 9.8 11.7 9.1 15.0 14.2 13.1 11.2 7.0 5.6 6.8 8.8 9.5 10.1 11.4 10.6 9.3 8.4 8.1 7.7 8.4 7.7 6.2 4.7 7.0 10.1 7.7 7.5
0.7 0.0 0.0 0.0 0.0 0.0 2.1 1.8 4.1 4.5 5.6 6.5 10.2 12.1 8.7 12.5 12.6 9.7 8.6 6.6 7.8 7.2 4.7 10.5 2.4 6.0 7.1 8.0 9.2 13.8 13.4 10.8 7.6 7.9 9.6 10.1 9.4 9.5 9.8 11.3 11.9 10.3 9.2 9.7 8.9 8.6 8.7 8.5 6.9 8.7 8.0 8.2 6.3 6.7
0.1 0.0 0.0 0.0 1.5 4.3 7.6 5.5 1.8 7.3 7.9 6.3 8.1 6.5 6.0 8.4 8.0 8.6 7.3 5.8 7.6 6.2 7.0 7.8 8.0 8.1 12.1 12.4 13.2 11.7 10.8 8.1 10.6 11.9 12.4 12.1 11.5 11.4 12.5 11.4 11.7 11.7 10.7 11.4 9.6 9.1 9.5 8.8 7.7 7.3 6.8 6.0 6.0 5.7
0.0 0.0 0.0 0.0 1.4 4.5 5.6 3.3 0.5 0.2 5.2 6.0 4.9 4.3 3.5 6.1 4.0 2.7 1.9 3.1 5.0 10.3 13.9 12.0 15.7 19.1 18.4 17.4 14.7 12.9 12.1 7.9 7.3 7.7 12.3 13.8 14.3 11.5 12.7 10.6 10.7 10.5 8.9 9.3 9.2 8.4 7.1 6.6 6.6 5.7 4.5 3.0 3.5 3.8
0.0 0.0 0.0 0.3 1.8 2.6 2.7 4.1 3.8 0.5 1.0 2.8 1.2 0.5 2.7 0.4 0.4 0.6 0.5 1.3 7.3 13.1 17.9 20.3 20.3 19.6 18.1 16.8 12.6 10.3 10.6 7.7 9.3 6.9 9.1 12.9 13.9 9.0 10.4 10.8 9.3 8.3 7.7 8.7 8.2 8.9 6.7 6.4 4.8 3.8 4.4 5.0 3.9 4.4
0.0 0.0 1.4 0.5 3.8 2.8 2.4 0.0 1.0 1.4 0.7 0.9 0.6 0.7 1.5 1.9 0.9 1.0 0.2 1.9 9.7 14.4 15.2 15.4 15.1 13.7 12.2 14.1 14.9 11.2 12.2 8.1 7.2 6.6 7.9 6.7 10.1 10.0 11.3 11.8 8.9 9.4 8.9 8.8 6.5 5.7 4.7 3.7 3.3 3.3 3.9 4.8 4.7 5.8
0.2 1.3 4.6 3.6 6.6 3.6 1.3 0.1 0.7 1.1 3.5 1.4 0.5 0.9 0.9 2.1 1.7 0.3 1.8 2.2 10.0 12.5 9.5 7.7 9.3 8.9 9.9 12.7 8.3 9.0 10.1 7.6 7.9 8.5 9.0 8.9 8.7 8.8 7.7 8.2 6.9 5.5 5.6 6.1 4.4 4.6 5.2 4.3 3.8 4.3 4.3 4.1 6.0 6.2
0.7 5.6 7.8 6.2 3.9 4.3 1.2 2.3 0.8 0.4 0.7 1.4 3.8 1.8 1.1 1.0 0.2 1.0 2.9 6.6 10.9 6.2 5.1 7.2 5.6 5.6 5.3 5.2 7.5 9.1 10.9 7.0 6.6 7.0 7.4 4.5 4.2 5.2 3.4 4.1 4.3 4.6 5.3 4.5 3.8 4.5 4.4 5.4 5.6 5.0 4.8 5.5 6.4 5.7
7.2 3.5 5.0 4.7 2.5 1.8 1.2 1.2 1.2 0.7 0.5 0.3 2.7 4.0 2.3 0.3 1.2 1.1 2.6 8.4 7.0 6.5 6.0 4.8 3.0 3.1 5.0 7.4 8.5 8.1 5.7 3.5 3.6 4.4 5.3 3.2 3.4 3.5 3.3 3.3 3.5 4.1 3.6 3.6 3.9 5.1 5.7 5.2 5.6 5.1 5.0 5.1 6.1 6.0
6.4 0.8 1.6 2.0 1.7 1.1 0.3 0.5 0.6 0.9 0.4 0.8 2.3 1.2 2.1 2.9 2.5 3.6 5.7 9.3 7.7 7.2 7.6 7.2 5.5 3.3 3.1 3.1 3.8 3.4 3.6 2.5 1.9 2.7 3.6 2.4 2.9 3.9 3.7 3.7 3.7 4.2 2.9 4.5 5.4 6.1 4.9 4.2 4.7 4.3 5.4 5.0 5.9 6.1
5.0 1.6 0.5 0.0 1.9 2.7 2.6 1.5 1.5 2.0 2.2 2.7 2.4 2.1 4.2 5.5 4.8 7.5 7.2 6.8 5.8 6.2 4.5 3.9 2.4 2.3 2.9 3.0 1.7 1.6 1.3 0.9 1.2 2.8 3.3 2.8 2.6 3.0 3.7 6.1 6.6 6.4 3.8 4.3 4.8 5.2 5.5 5.4 5.5 5.1 5.4 6.2 5.8 6.3
0.9 0.8 1.4 2.1 3.0 3.3 5.5 4.0 3.7 4.4 4.1 3.3 3.1 3.7 4.2 4.6 7.7 8.8 7.7 6.5 5.4 2.9 2.0 1.6 1.6 1.8 2.1 2.6 2.6 2.2 1.9 1.6 1.8 2.3 2.6 2.5 2.2 3.4 3.9 3.4 3.3 2.6 2.8 3.5 3.7 3.6 4.1 4.9 6.1 6.2 6.6 6.3 6.7 6.1
1.4 1.1 1.1 1.8 1.9 1.7 3.2 4.0 4.2 4.2 3.2 3.0 3.2 3.3 4.2 4.7 10.1 9.3 7.8 5.9 4.0 2.5 2.6 2.4 4.0 2.2 2.0 3.1 1.9 1.8 2.4 2.9 4.2 5.2 6.0 7.8 6.4 5.7 3.3 2.7 2.6 2.4 2.3 2.5 2.3 2.7 3.6 4.3 5.5 5.3 6.7 6.7 7.2 7.3
0.7 0.6 0.9 0.4 0.7 0.9 4.2 2.1 2.7 2.2 0.5 1.4 1.0 0.9 1.3 8.0 12.1 8.4 6.8 5.0 4.6 5.6 6.8 5.2 4.7 2.6 4.0 1.9 4.4 3.1 3.4 3.7 4.4 5.9 7.4 7.0 6.7 5.1 2.8 2.4 2.0 2.1 2.1 2.5 2.7 2.9 3.0 2.7 3.5 3.6 4.7 5.2 7.1 8.1
1.0 1.9 2.5 2.0 2.3 3.6 2.9 1.3 1.6 1.9 2.2 2.3 2.4 2.4 4.1 6.5 9.3 5.6 5.7 7.8 4.8 3.8 3.1 3.5 3.7 4.5 4.5 4.4 5.5 5.1 7.4 5.4 5.0 5.3 6.1 6.5 4.9 3.4 2.7 2.1 2.2 1.9 2.1 1.9 2.3 2.5 3.4 3.6 4.7 5.6 4.8 5.1 5.5 6.3
2.2 4.2 4.6 4.2 5.5 3.5 3.9 5.7 3.7 4.3 4.0 4.1 4.4 2.3 4.9 5.1 4.1 6.9 5.3 5.2 5.5 5.4 5.2 5.6 5.9 7.3 7.0 8.3 7.7 7.5 7.2 6.2 4.5 4.0 4.0 3.8 3.9 3.1 2.4 1.7 2.2 2.5 2.4 2.2 2.5 2.3 2.8 3.9 5.0 5.4 6.0 5.4 5.8 5.6
3.1 3.4 3.9 5.3 5.6 5.6 4.6 6.1 5.3 6.3 5.4 5.3 5.9 6.6 6.6 4.9 6.6 9.8 4.9 5.5 11.2 11.4 9.4 8.9 9.1 8.9 9.2 7.6 6.3 6.6 6.3 5.9 5.2 3.6 3.3 2.6 2.0 1.7 1.4 1.9 1.9 2.6 2.7 2.9 3.1 3.1 3.4 3.2 3.8 3.8 3.6 3.8 3.8 3.4

GFSWCAN_prec_kuchsnow_279.txt.gz
Snowfall_Accumulation
0.0 0.0 0.0 0.0 0.0 0.0 0.0 0.0 0.0 0.0 0.0 0.0 0.0 0.0 0.0 0.0 0.0 0.0 0.0 0.0 0.0 17.7 3.5 0.0 0.0 0.4 0.5 0.2 3.2 3.3 3.5 5.7 5.2 11.0 15.3 15.9 11.8 2.4 1.5 0.9 3.7 2.3 7.6 11.1 8.9 19.3 17.1 0.0 0.0 1.5 2.3 0.4 0.2 0.2
0.0 0.0 0.0 0.0 0.0 0.0 0.0 0.0 0.0 0.0 0.0 0.0 0.0 0.0 0.0 0.0 0.0 0.0 0.0 0.0 0.0 2.1 5.7 0.0 0.0 0.0 0.0 0.0 0.0 0.0 0.6 0.4 1.0 7.7 5.7 6.3 15.9 7.6 4.1 7.7 0.0 9.5 2.1 5.9 6.7 5.7 1.0 0.1 0.8 0.5 0.3 0.2 0.2 0.0
0.0 0.0 0.0 0.0 0.0 0.0 0.0 0.0 0.0 0.0 0.0 0.0 0.0 0.0 0.0 0.0 0.0 0.0 0.0 0.0 0.0 8.8 9.5 0.0 1.9 0.0 0.0 0.0 0.0 2.2 0.1 0.0 0.0 0.0 6.9 8.7 22.0 3.7 10.5 3.4 2.5 2.2 0.9 5.3 2.6 1.9 0.4 0.1 0.1 0.1 0.1 0.1 0.0 0.1
0.0 0.0 0.0 0.0 0.0 0.0 0.0 0.0 0.0 0.0 0.0 0.0 0.0 0.0 0.0 0.0 0.0 0.0 0.0 0.0 0.0 1.1 33.3 15.3 0.0 0.0 0.0 0.0 0.0 0.0 0.0 0.0 0.0 0.0 23.4 26.6 21.7 4.4 9.6 2.6 2.2 0.7 2.0 6.7 5.8 2.5 1.3 0.6 0.6 0.8 0.2 0.0 0.1 0.0
0.0 0.0 0.0 0.0 0.0 0.0 0.0 0.0 0.0 0.0 0.0 0.0 0.0 0.0 0.0 0.0 0.0 0.0 0.0 0.0 0.0 0.0 26.2 9.4 0.3 0.0 0.0 0.0 0.0 0.0 0.0 0.0 2.8 20.9 30.8 22.2 6.2 6.4 5.9 5.1 6.4 1.1 5.7 5.8 17.1 6.9 5.5 3.6 2.2 1.4 1.5 0.8 0.2 0.2
0.0 0.0 0.0 0.0 0.0 0.0 0.0 0.0 0.0 0.0 0.0 0.0 0.0 0.0 0.0 0.0 0.0 0.0 22.5 0.0 0.0 0.0 10.8 20.9 1.3 1.2 0.0 0.0 0.0 0.0 0.0 0.0 2.3 13.6 18.7 8.8 0.0 1.1 20.0 9.4 1.0 1.1 1.5 2.3 8.6 7.3 5.3 4.5 2.9 1.9 2.3 1.9 0.4 0.4
0.0 0.0 0.0 0.0 0.0 0.0 0.0 0.0 0.0 0.0 0.0 0.0 0.0 0.0 0.0 0.0 0.0 3.3 7.5 0.0 0.0 0.0 19.1 28.0 9.9 1.4 0.0 0.0 0.0 0.0 0.0 0.4 1.5 8.7 15.1 5.8 1.1 1.6 17.6 12.8 1.2 1.4 2.0 2.0 2.5 3.7 7.5 3.9 4.8 2.0 1.3 1.3 0.5 0.9
0.0 0.0 0.0 0.0 0.0 0.0 0.0 0.0 0.0 0.0 0.0 0.0 0.0 0.0 0.0 0.0 0.0 0.2 0.0 0.0 0.0 0.0 5.9 28.2 15.4 8.7 0.0 4.4 5.8 0.0 2.1 4.0 10.2 8.9 7.8 4.2 2.8 6.9 22.9 0.4 0.3 1.1 1.2 1.5 1.1 0.7 2.3 4.0 2.9 1.9 1.4 1.5 1.5 1.6
0.0 0.0 0.0 0.0 0.0 0.0 0.0 0.0 0.0 0.0 0.0 0.0 0.0 0.0 0.0 0.0 17.3 1.3 0.0 0.0 0.0 0.0 27.4 12.7 8.8 17.6 1.3 5.3 3.3 4.4 2.3 20.4 5.5 11.8 4.1 1.5 10.9 23.6 7.2 2.5 3.4 2.9 4.7 4.4 2.0 0.9 1.5 4.6 3.3 1.8 1.4 1.8 1.6 3.1
0.0 0.0 0.0 0.0 0.0 0.0 0.0 0.0 0.0 0.0 0.0 0.0 0.0 8.8 58.9 7.6 0.0 0.0 0.0 16.4 19.9 14.9 10.3 10.9 0.4 9.3 2.0 8.2 10.3 10.3 10.3 12.9 18.4 5.0 1.6 11.7 7.8 4.8 2.4 2.7 3.6 5.5 4.4 5.5 8.4 6.2 2.5 3.3 1.9 1.3 0.7 0.5 0.9 2.9
0.0 0.0 0.0 0.0 0.0 0.0 0.0 0.0 0.0 0.0 0.0 0.0 18.5 26.4 1.9 0.0 0.0 8.1 33.3 29.1 18.0 19.5 4.6 3.2 2.1 4.2 1.0 15.6 15.9 6.4 16.8 8.0 13.5 3.6 5.0 9.7 7.5 6.2 2.9 4.4 3.5 5.6 6.1 7.1 7.4 6.2 3.3 1.3 1.0 0.6 2.0 2.5 2.5 4.5
0.0 0.0 0.0 0.0 0.0 0.0 0.0 0.0 0.0 0.0 0.0 0.0 0.0 0.0 0.6 5.1 18.2 25.4 21.2 10.9 4.7 5.0 3.8 3.9 4.0 2.6 5.2 2.5 15.7 18.4 21.0 14.1 14.0 3.4 19.7 11.6 9.6 3.5 3.8 4.7 4.3 4.7 6.8 6.0 7.0 12.6 9.1 3.8 2.6 3.8 4.2 6.1 6.9 8.1
0.0 0.0 0.0 0.0 0.0 0.0 0.0 0.0 0.0 0.0 0.0 0.0 3.4 22.0 25.0 24.5 32.6 20.1 11.3 4.8 4.2 2.0 2.4 3.0 7.7 3.7 3.8 2.1 15.3 15.5 20.8 18.6 5.1 23.5 14.4 9.4 3.4 1.7 1.9 2.8 3.8 3.5 4.9 5.2 8.9 12.0 11.1 13.3 13.5 11.5 14.7 17.1 16.4 20.2
0.0 0.0 0.0 0.0 0.0 0.0 0.0 0.0 0.0 0.0 0.0 13.6 21.2 33.4 26.0 21.9 11.6 9.6 3.8 4.0 2.5 2.6 2.9 3.9 8.3 8.0 5.6 11.7 13.3 23.3 10.7 8.4 19.5 21.0 12.4 10.4 8.3 5.8 3.5 3.7 4.5 8.2 7.7 7.9 12.1 14.0 14.6 16.8 23.3 24.1 23.2 23.9 19.9 22.6
0.0 0.0 0.0 0.0 0.0 0.0 0.0 0.0 0.0 0.0 4.6 16.9 15.8 22.4 12.2 12.4 7.0 6.6 5.1 3.4 3.4 4.0 7.5 11.0 11.2 8.5 10.9 15.4 10.1 10.7 15.8 13.3 11.1 12.0 15.3 12.8 8.9 5.7 6.3 6.1 6.8 8.7 9.5 11.3 12.0 12.5 13.9 12.9 11.2 18.5 20.3 18.1 13.1 14.9
0.0 0.0 0.0 0.0 0.0 0.0 0.0 0.0 0.5 1.0 6.1 7.6 9.6 10.2 6.9 9.2 10.6 8.6 7.4 7.5 2.9 6.5 4.0 9.3 16.7 20.4 17.7 11.4 13.5 9.9 7.8 9.3 13.9 10.3 9.4 5.9 6.2 6.8 7.9 8.2 10.1 10.8 10.1 10.7 10.5 9.0 9.7 9.1 7.0 10.5 10.6 9.6 10.2 7.9
0.0 1.4 0.0 0.0 0.0 0.0 0.0 1.3 3.6 8.7 7.2 6.0 9.6 9.0 8.4 9.3 12.6 10.6 9.0 7.3 3.7 8.8 10.7 6.3 13.2 15.1 8.9 9.8 11.8 9.1 15.0 14.2 13.1 11.2 7.0 5.6 6.8 8.8 9.5 10.1 11.4 10.6 9.3 8.4 8.1 7.7 8.4 7.7 6.2 4.7 7.0 10.1 7.7 7.5
0.7 0.0 0.0 0.0 0.0 0.0 2.1 2.9 5.0 5.0 5.9 6.5 10.2 12.1 8.7 12.5 12.6 9.7 8.6 6.6 7.8 7.2 4.7 10.5 2.4 6.0 7.1 8.0 9.2 13.8 13.4 10.8 7.6 7.9 9.6 10.1 9.4 9.5 9.8 11.3 11.9 10.3 9.2 9.7 8.9 8.6 8.7 8.5 6.9 8.7 8.0 8.2 6.3 6.7
0.1 0.0 0.0 0.3 1.5 4.8 8.9 7.1 2.2 7.6 7.9 6.3 8.1 6.5 6.0 8.4 8.0 8.6 7.3 5.8 7.6 6.2 7.0 7.8 8.1 8.1 12.1 12.4 13.2 11.7 10.8 8.1 10.6 11.9 12.4 12.1 11.5 11.4 12.5 11.4 11.7 11.7 10.7 11.4 9.6 9.1 9.5 8.8 7.7 7.3 6.8 6.0 6.0 5.7
0.0 0.0 0.0 0.0 2.4 5.9 6.9 4.4 0.5 0.2 5.2 6.0 4.9 4.3 3.5 6.1 4.0 2.7 1.9 3.1 5.0 10.6 14.4 12.3 15.7 19.1 18.4 17.4 14.7 12.9 12.1 7.9 7.3 7.7 12.3 13.8 14.3 11.5 12.7 10.6 10.7 10.5 8.9 9.3 9.2 8.4 7.1 6.6 6.6 5.7 4.5 3.0 3.5 3.8
0.0 0.0 0.0 0.3 2.5 3.1 3.2 4.8 4.4 0.5 1.0 2.8 1.2 0.5 2.7 0.4 0.4 0.6 0.5 1.3 7.5 14.0 18.3 20.4 20.3 19.6 18.1 16.8 12.6 10.3 10.6 7.7 9.3 6.9 9.1 12.9 13.9 9.0 10.4 10.8 9.3 8.3 7.7 8.7 8.2 8.9 6.7 6.4 4.8 3.8 4.4 5.0 3.9 4.4
0.1 0.0 1.4 0.7 4.2 2.9 2.5 0.0 1.0 2.0 0.8 0.9 0.6 0.7 1.5 2.1 0.9 1.0 0.2 1.9 9.8 14.4 15.2 15.4 15.1 13.7 12.2 14.1 14.9 11.2 12.2 8.1 7.2 6.6 7.9 6.7 10.1 10.0 11.3 11.8 8.9 9.4 8.9 8.8 6.5 5.7 4.7 3.7 3.3 3.3 3.9 4.8 4.7 5.8
0.2 1.8 4.7 3.8 7.5 4.1 1.3 0.1 0.7 1.1 4.5 1.6 0.5 0.9 0.9 2.1 1.7 0.3 1.9 2.2 10.0 12.5 9.5 7.7 9.3 8.9 9.9 12.7 8.3 9.0 10.1 7.6 7.9 8.5 9.0 8.9 8.7 8.8 7.7 8.2 6.9 5.5 5.6 6.1 4.4 4.6 5.2 4.3 3.8 4.3 4.3 4.1 6.0 6.2
0.7 7.3 8.1 6.4 3.9 4.8 1.2 2.3 0.8 0.5 0.8 1.5 4.3 2.8 1.1 1.0 0.2 1.0 2.9 6.6 10.9 6.2 5.1 7.2 5.6 5.6 5.3 5.2 7.5 9.1 10.9 7.0 6.6 7.0 7.4 4.5 4.2 5.2 3.4 4.1 4.3 4.6 5.3 4.5 3.8 4.5 4.4 5.4 5.6 5.0 4.8 5.5 6.4 5.7
10.1 5.1 5.4 4.9 2.8 2.7 1.2 1.5 1.3 0.8 0.6 0.3 2.9 4.5 4.0 1.5 2.3 1.4 2.6 8.4 7.0 6.5 6.0 4.8 3.0 3.1 5.0 7.4 8.5 8.1 5.7 3.5 3.6 4.4 5.3 3.2 3.4 3.5 3.3 3.3 3.5 4.1 3.6 3.6 3.9 5.1 5.7 5.2 5.6 5.1 5.0 5.1 6.1 6.0
8.6 1.4 1.7 2.0 1.7 1.4 0.6 0.7 1.0 1.2 0.4 0.8 2.3 1.2 2.1 3.4 3.3 4.4 5.7 9.3 7.7 7.2 7.6 7.2 5.5 3.3 3.1 3.1 3.8 3.4 3.6 2.5 1.9 2.7 3.6 2.4 2.9 3.9 3.7 3.7 3.7 4.2 2.9 4.5 5.4 6.1 4.9 4.2 4.7 4.3 5.4 5.0 5.9 6.1
6.0 2.3 0.5 0.0 1.9 2.7 2.7 1.5 1.5 2.0 2.4 2.9 2.4 2.1 4.6 6.6 5.3 7.5 7.2 6.8 5.8 6.2 4.5 3.9 2.4 2.3 2.9 3.0 1.7 1.6 1.3 0.9 1.2 2.8 3.3 2.8 2.6 3.0 3.7 6.1 6.6 6.4 3.8 4.3 4.8 5.2 5.5 5.4 5.5 5.1 5.4 6.2 5.8 6.3
1.5 1.1 1.5 2.1 3.0 3.3 5.5 4.3 4.1 4.5 4.1 3.3 3.1 3.8 4.7 4.8 7.7 8.8 7.7 6.5 5.4 2.9 2.0 1.6 1.6 1.8 2.1 2.6 2.6 2.2 1.9 1.6 1.8 2.3 2.6 2.5 2.2 3.4 3.9 3.4 3.3 2.6 2.8 3.5 3.7 3.6 4.1 4.9 6.1 6.2 6.6 6.3 6.7 6.1
1.7 1.3 1.1 2.2 2.1 1.7 3.2 4.0 4.2 4.4 3.2 3.1 3.4 3.4 4.2 4.7 10.1 9.3 7.8 5.9 4.0 2.5 2.6 2.4 4.0 2.2 2.0 3.1 1.9 1.8 2.4 2.9 4.2 5.2 6.0 7.8 6.4 5.7 3.3 2.7 2.6 2.4 2.3 2.5 2.3 2.7 3.6 4.3 5.5 5.3 6.7 6.7 7.2 7.3
0.7 0.6 1.3 0.9 1.2 1.3 4.3 2.1 2.7 2.2 0.8 1.6 1.5 1.2 1.4 8.0 12.1 8.4 6.8 5.0 4.6 5.6 6.8 5.2 4.7 2.6 4.0 1.9 4.4 3.1 3.4 3.7 4.4 5.9 7.4 7.0 6.7 5.1 2.8 2.4 2.0 2.1 2.1 2.5 2.7 2.9 3.0 2.7 3.5 3.6 4.7 5.2 7.1 8.1
1.0 1.9 2.5 2.0 2.4 3.6 3.0 1.5 1.8 1.9 2.4 2.4 2.5 2.4 4.1 6.5 9.3 5.6 5.7 7.8 4.8 3.8 3.1 3.5 3.7 4.5 4.5 4.4 5.5 5.1 7.4 5.4 5.0 5.3 6.1 6.5 4.9 3.4 2.7 2.1 2.2 1.9 2.1 1.9 2.3 2.5 3.4 3.6 4.7 5.6 4.8 5.1 5.5 6.3
2.4 4.5 4.9 4.3 5.5 3.5 4.0 5.7 3.8 4.4 4.1 4.2 4.4 2.4 4.9 5.1 4.1 6.9 5.3 5.2 5.5 5.4 5.2 5.6 5.9 7.3 7.0 8.3 7.7 7.5 7.2 6.2 4.5 4.0 4.0 3.8 3.9 3.1 2.4 1.7 2.2 2.5 2.4 2.2 2.5 2.3 2.8 3.9 5.0 5.4 6.0 5.4 5.8 5.6
3.5 3.7 4.1 5.5 5.8 5.7 4.7 6.1 5.3 6.3 5.4 5.3 5.9 6.6 6.6 4.9 6.6 9.8 4.9 5.5 11.2 11.4 9.4 8.9 9.1 8.9 9.2 7.6 6.3 6.6 6.3 5.9 5.2 3.6 3.3 2.6 2.0 1.7 1.4 1.9 1.9 2.6 2.7 2.9 3.1 3.1 3.4 3.2 3.8 3.8 3.6 3.8 3.8 3.4